If you wish to contribute or participate in the discussions about articles you are invited to join SKYbrary as a registered user

 Actions

Alice Springs Airport

From SKYbrary Wiki

YBAS
Airport
ICAO: YBAS – IATA: ASP
Summary
Name Alice Springs Airport
Region Asia and Pacific
Territory Australia AU.gif
Location , Northern Territory
Serving Alice Springs
Elevation 545.287 m
1,789 ft
1,789 ft545.287 m
Type medium airport
Coordinates 23° 48' 24.01" S, 133° 54' 7.99" E
Runways
Designator Length Width Surface ROPS
12/30 2438 m7,998.688 ft
45 m147.638 ft
ASP yes/yes
17/35 1133 m3,717.192 ft
18 m59.055 ft
ASP yes/yes


METAR
Observation YBAS 271500Z AUTO 07006KT 9999 // NCD 18/M03 Q1017
Station Alice Springs Aerodrome
Date/Time 27 October 2020 15:00:00
Wind direction 70°
Wind speed 06 kts
Lowest cloud amount no clouds detected
Temperature 18°C
Dew point
Humidity 23%
QNH 1017 hPa
Weather condition n/a